Port Hope, MI

3:05 AM EDT on May 25, 2017 (GMT -0400)
Port Hope

Weather History for KP58 - June, 2013

Change the Weather History Date:

Friday, June 21, 2013

  Actual Average Record
Temperature  
Mean Temperature 72 °F -  
Max Temperature 81 °F 71 °F 87 °F (2012)
Min Temperature 63 °F 56 °F 52 °F (2003)
Cooling Degree Days 7    
Growing Degree Days 22 (Base 50)    
Moisture  
Dew Point 57 °F    
Average Humidity 62    
Maximum Humidity 78    
Minimum Humidity 49    
Precipitation  
Precipitation 0.01 in - - ()
Sea Level Pressure  
Sea Level Pressure 30.11 in    
Wind  
Wind Speed 4 mph (SSE)    
Max Wind Speed 14 mph    
Max Gust Speed -    
Averages and records for this station are not official NWS values.
T = Trace of Precipitation, MM = Missing Value Source: NWS Daily Summary

Daily Weather History Graph

Daily Weather History Graph

Search for Another Location

Airport or City:

Trip Planner

Search our weather history database for the weather conditions in past years. The results will help you decide how hot, cold, wet, or windy it might be!

Date:

Astronomy

Jun. 21, 2013 Rise Set
Actual Time 5:48 AM EDT 9:17 PM EDT
Civil Twilight 5:11 AM EDT 9:54 PM EDT
Nautical Twilight 4:24 AM EDT 10:42 PM EDT
Astronomical Twilight 3:22 AM EDT 11:43 PM EDT
Moon 7:24 PM EDT (6/21) 4:06 AM EDT (6/21)
Length of Visible Light 16h 42m
Length of Day
15h 29m
Waxing Gibbous, 95% of the Moon is Illuminated
Jun 21
Waxing Gibbous
Jun 23
Full
Jun 30
Last Quarter
Jul 8
New
Jul 15
First Quarter

Hourly Weather History & Observations

Time (EDT) Temp. Heat Index Dew Point Humidity Pressure Visibility Wind Dir Wind Speed Gust Speed Precip Events Conditions
12:51 AM 66.9 °F - 52.0 °F 59% 30.17 in - Calm Calm - N/A   Unknown
1:51 AM 64.9 °F - 52.0 °F 63% 30.18 in - Calm Calm - N/A   Unknown
2:51 AM 64.0 °F - 51.1 °F 63% 30.18 in - SW 4.6 mph - N/A   Unknown
3:51 AM 64.0 °F - 50.0 °F 60% 30.17 in - SW 4.6 mph - N/A   Unknown
4:51 AM 63.0 °F - 50.0 °F 63% 30.15 in - SW 4.6 mph - N/A   Unknown
5:51 AM 64.0 °F - 48.9 °F 58% 30.16 in - Variable 3.5 mph - N/A   Unknown
6:51 AM 64.9 °F - 48.9 °F 56% 30.16 in - SSW 3.5 mph - N/A   Unknown
7:51 AM 68.0 °F - 50.0 °F 52% 30.18 in - Variable 3.5 mph - N/A   Unknown
8:51 AM 71.1 °F - 51.1 °F 49% 30.19 in - Variable 5.8 mph - N/A   Unknown
9:51 AM 73.9 °F - 54.0 °F 50% 30.14 in - SSE 4.6 mph - N/A   Unknown
10:51 AM 69.1 °F - 60.1 °F 73% 30.17 in - ESE 6.9 mph - N/A   Unknown
11:51 AM 68.0 °F - 61.0 °F 78% 30.16 in - ESE 12.7 mph - N/A   Unknown
12:51 PM 69.1 °F - 61.0 °F 75% 30.15 in - ESE 13.8 mph - N/A   Unknown
1:51 PM 77.0 °F - 61.0 °F 58% 30.12 in - SE 10.4 mph - N/A   Unknown
2:51 PM 73.0 °F - 63.0 °F 71% 30.11 in - ESE 13.8 mph - N/A   Unknown
3:51 PM 80.1 °F 81.1 °F 61.0 °F 52% 30.09 in - SE 6.9 mph - N/A   Unknown
4:51 PM 80.1 °F 81.2 °F 62.1 °F 54% 30.06 in - SE 8.1 mph - 0.01 in   Unknown
5:51 PM 80.1 °F 81.7 °F 64.0 °F 58% 30.03 in - SE 9.2 mph - N/A   Unknown
6:51 PM 81.0 °F 82.2 °F 63.0 °F 54% 30.03 in - Variable 4.6 mph - N/A   Unknown
7:51 PM 78.1 °F - 64.0 °F 62% 30.02 in - Variable 3.5 mph - N/A   Unknown
8:51 PM 72.0 °F - 64.9 °F 78% 30.02 in - SE 6.9 mph - N/A   Unknown
9:51 PM 75.9 °F - 62.1 °F 62% 30.03 in - Variable 3.5 mph - N/A   Unknown
10:51 PM 73.9 °F - 62.1 °F 66% 30.04 in - Variable 3.5 mph - N/A   Unknown
11:51 PM 73.9 °F - 60.1 °F 62% 30.03 in - Variable 4.6 mph - N/A   Unknown